Location: Bazugues
(43.4465°N, 0.3432°E)
Time: 14:11:12
(UTC+00:00)

Cosmos 332 Rocket - Visible Passes

Search period start: 19 April 2026 00:00
Search period end: 29 April 2026 00:00
Orbit: 671 x 693 km, 74.0° (Epoch: 19 April)

Date Brightness Start Highest point End Pass type
(mag) Time Alt. Az. Time Alt. Az. Time Alt. Az.
19 Apr 5.9 22:35:32 10° N 22:37:56 19° NE 22:37:56 19° NE visible
20 Apr 6.1 00:15:02 10° NNW 00:16:23 18° NW 00:16:23 18° NW visible
20 Apr 5.6 23:12:20 10° NNW 23:14:48 29° N 23:14:48 29° N visible
21 Apr 5.8 22:10:28 10° N 22:13:13 19° NE 22:13:13 19° NE visible
21 Apr 5.9 23:49:54 10° NNW 23:51:41 22° NW 23:51:41 22° NW visible
22 Apr 5.2 22:47:13 10° NNW 22:50:07 33° N 22:50:07 33° N visible
23 Apr 6.5 00:28:34 10° NW 00:28:35 10° NW 00:28:35 10° NW visible
23 Apr 5.7 21:45:25 10° N 21:48:35 19° NE 21:48:35 19° NE visible
23 Apr 5.6 23:24:46 10° NNW 23:27:03 27° NW 23:27:03 27° NW visible
24 Apr 4.9 22:22:07 10° N 22:25:31 39° NNE 22:25:31 39° NNE visible
25 Apr 6.4 00:03:21 10° NW 00:03:59 12° WNW 00:03:59 12° WNW visible
25 Apr 5.6 21:20:22 10° N 21:23:44 19° NE 21:24:01 18° ENE visible
25 Apr 5.2 22:59:38 10° NNW 23:02:29 34° NW 23:02:29 34° NW visible
26 Apr 4.5 21:57:01 10° N 22:01:00 44° NE 22:01:00 44° NE visible
26 Apr 6.2 23:38:09 10° NW 23:39:28 15° WNW 23:39:28 15° WNW visible
27 Apr 5.5 20:55:19 10° NNE 20:58:35 18° NE 20:59:33 17° ENE visible
27 Apr 4.7 22:34:29 10° NNW 22:38:01 44° NW 22:38:01 44° NW visible
28 Apr 4.2 21:31:55 10° N 21:36:31 45° ENE 21:36:34 45° ENE visible
28 Apr 5.9 23:12:57 10° NW 23:15:03 18° WNW 23:15:03 18° WNW visible
